N6ZQK Weather Reports


Display with metric or nautical units.
time (UTC)temp
F
wind
direction
speed
MPH
gust
MPH
rain 1hr
in
rain 24hr
in
rain mn
in
humidity
%
barometer
mb
20260504050624 52 227 1.0 3.0 0.00 0.00 0.00 85 1011.0
20260504050003 52 227 0.0 3.0 0.00 0.00 0.00 86 1011.0
20260504045403 52 227 0.0 3.0 0.00 0.00 0.00 86 1011.0
20260504044824 52 227 1.0 4.0 0.00 0.00 0.00 86 1010.8
20260504044203 52 221 2.0 8.0 0.00 0.00 0.00 86 1010.7
20260504043624 52 194 1.0 8.0 0.00 0.00 0.00 87 1010.7
20260504043024 52 166 0.0 5.0 0.00 0.00 0.00 87 1010.6
20260504042403 52 165 0.0 4.0 0.00 0.00 0.00 86 1010.5
20260504041803 52 165 0.0 2.0 0.00 0.00 0.00 87 1010.6
20260504041203 52 0 0.0 0.0 0.00 0.00 0.00 87 1010.5
20260504040603 52 0 0.0 0.0 0.00 0.00 0.00 87 1010.5
20260504040024 52 0 0.0 0.0 0.00 0.00 0.00 87 1010.5
20260504035403 52 165 0.0 2.0 0.00 0.00 0.00 87 1010.5
20260504034804 52 165 0.0 1.0 0.00 0.00 0.00 87 1010.4
20260504034203 52 165 0.0 1.0 0.00 0.00 0.00 87 1010.3
20260504033603 52 165 0.0 2.0 0.00 0.00 0.00 87 1010.2
20260504033003 52 165 1.0 5.0 0.00 0.00 0.00 87 1010.2
20260504032403 52 166 1.0 4.0 0.00 0.00 0.00 87 1010.0
20260504031803 52 175 1.0 5.0 0.00 0.00 0.00 87 1009.9
20260504031203 52 227 0.0 2.0 0.00 0.00 0.00 87 1009.9
20260504030603 52 229 0.0 2.0 0.00 0.00 0.00 86 1009.9
20260504030003 52 229 0.0 2.0 0.00 0.00 0.00 86 1009.9
20260504025424 52 229 0.0 2.0 0.00 0.00 0.00 86 1009.8
20260504024803 52 229 0.0 2.0 0.00 0.00 0.00 86 1009.8
20260504024224 52 229 0.0 2.0 0.00 0.00 0.00 86 1009.6
20260504023603 52 229 0.0 2.0 0.00 0.00 0.00 86 1009.5
20260504023003 52 229 0.0 2.0 0.00 0.00 0.00 86 1009.4
20260504022403 52 229 0.0 3.0 0.00 0.00 0.00 86 1009.4
20260504021803 52 229 0.0 3.0 0.00 0.00 0.00 85 1009.5
20260504021203 52 230 1.0 8.0 0.00 0.00 0.00 85 1009.4
20260504020603 52 233 3.0 8.0 0.00 0.00 0.00 85 1009.5
20260504020003 52 230 3.0 7.0 0.00 0.00 0.00 86 1009.4
20260504015403 52 233 2.0 7.0 0.00 0.00 0.00 86 1009.3
20260504014803 52 237 1.0 5.0 0.00 0.00 0.00 86 1009.4
20260504014224 52 237 1.0 5.0 0.00 0.00 0.00 86 1009.2
20260504013603 53 237 0.0 3.0 0.00 0.00 0.00 85 1009.2
20260504013003 53 234 0.0 2.0 0.00 0.00 0.00 85 1009.3
20260504012424 53 234 0.0 3.0 0.00 0.00 0.00 85 1009.2
20260504011803 53 235 1.0 5.0 0.00 0.00 0.00 85 1009.1
20260504011224 53 229 2.0 6.0 0.00 0.00 0.00 85 1009.1
20260504010604 53 225 3.0 7.0 0.00 0.00 0.00 85 1009.0
20260504010003 52 233 2.0 7.0 0.00 0.00 0.00 85 1008.8
20260504005424 52 213 1.0 6.0 0.00 0.00 0.00 85 1008.9
20260504004824 52 219 2.0 6.0 0.00 0.00 0.00 85 1008.9
20260504004203 52 209 3.0 7.0 0.00 0.00 0.00 85 1008.9
20260504003603 52 204 3.0 7.0 0.00 0.00 0.00 86 1008.9
20260504003024 52 214 3.0 7.0 0.00 0.00 0.00 86 1008.7
20260504002403 52 216 1.0 5.0 0.00 0.00 0.00 86 1008.7
20260504001803 52 217 1.0 5.0 0.00 0.00 0.00 87 1008.6
20260504001203 52 245 1.0 5.0 0.00 0.00 0.00 86 1008.6
20260504000603 52 244 2.0 5.0 0.00 0.00 0.00 86 1008.5
20260504000003 52 238 2.0 5.0 0.00 0.00 0.00 87 1008.5
20260503235424 52 253 1.0 5.0 0.00 0.00 0.00 87 1008.4
20260503234803 52 316 1.0 4.0 0.00 0.00 0.00 86 1008.5
20260503234203 52 316 1.0 4.0 0.00 0.00 0.00 86 1008.5
20260503233603 52 321 1.0 5.0 0.00 0.00 0.00 86 1008.5
20260503233003 52 300 1.0 5.0 0.00 0.00 0.00 85 1008.8
20260503232403 53 288 0.0 4.0 0.00 0.00 0.00 85 1008.8
20260503231824 53 321 2.0 6.0 0.00 0.00 0.00 85 1009.0
20260503231203 53 306 1.0 6.0 0.00 0.00 0.00 85 1008.9
20260503230603 53 263 0.0 3.0 0.00 0.00 0.00 85 1009.1
20260503230003 53 260 1.0 3.0 0.00 0.00 0.00 85 1008.8
20260503225424 53 247 1.0 3.0 0.00 0.00 0.00 85 1008.9
20260503224803 53 239 1.0 3.0 0.00 0.00 0.00 85 1008.9
20260503224203 53 236 0.0 3.0 0.00 0.00 0.00 84 1008.9
20260503223624 53 235 0.0 2.0 0.00 0.00 0.00 85 1009.1
20260503223024 53 235 0.0 2.0 0.00 0.00 0.00 84 1009.1
20260503222403 53 228 2.0 6.0 0.00 0.00 0.00 84 1009.1
20260503221803 53 224 2.0 6.0 0.00 0.00 0.00 85 1009.0
20260503221203 53 213 0.0 3.0 0.00 0.00 0.00 84 1009.0
20260503220603 53 229 1.0 4.0 0.00 0.00 0.00 85 1009.0
20260503220003 53 227 1.0 4.0 0.00 0.00 0.00 84 1008.8
20260503215403 53 196 2.0 7.0 0.00 0.00 0.00 84 1009.0
20260503214824 53 196 1.0 7.0 0.00 0.00 0.00 84 1009.0
20260503214203 53 189 1.0 7.0 0.00 0.00 0.00 85 1008.7
20260503213603 53 190 1.0 8.0 0.00 0.00 0.00 84 1008.8
20260503213003 53 184 1.0 6.0 0.00 0.00 0.00 85 1008.9
20260503212403 53 188 3.0 8.0 0.00 0.00 0.00 84 1008.8
20260503211803 53 186 3.0 9.0 0.00 0.00 0.00 84 1008.8
20260503211203 53 179 3.0 9.0 0.00 0.00 0.00 84 1008.7
20260503210603 53 170 4.0 7.0 0.00 0.00 0.00 84 1008.7
20260503210004 53 169 3.0 9.0 0.00 0.00 0.00 84 1008.7
20260503205403 53 168 2.0 9.0 0.00 0.00 0.00 84 1008.6
20260503204803 53 180 3.0 7.0 0.00 0.00 0.00 83 1008.5
20260503204203 53 182 4.0 8.0 0.00 0.00 0.00 83 1008.6
20260503203603 54 203 3.0 10.0 0.00 0.00 0.00 83 1008.5
20260503203003 54 199 2.0 8.0 0.00 0.00 0.00 83 1008.6
20260503202403 54 219 2.0 6.0 0.00 0.00 0.00 82 1008.7
20260503201803 54 210 2.0 6.0 0.00 0.00 0.00 82 1008.6
20260503201203 54 186 2.0 8.0 0.00 0.00 0.00 80 1008.5
20260503200603 55 199 3.0 10.0 0.00 0.00 0.00 80 1008.5
20260503200003 55 213 4.0 10.0 0.00 0.00 0.00 79 1008.5
20260503195403 56 228 3.0 7.0 0.00 0.00 0.00 77 1008.3
20260503194803 56 224 3.0 8.0 0.00 0.00 0.00 75 1008.3
20260503194203 57 224 3.0 8.0 0.00 0.00 0.00 76 1008.4
20260503193603 58 213 4.0 12.0 0.00 0.00 0.00 74 1008.3
20260503193024 58 212 3.0 8.0 0.00 0.00 0.00 74 1008.5
20260503192403 58 210 3.0 8.0 0.00 0.00 0.00 74 1008.3
20260503191803 59 211 3.0 6.0 0.00 0.00 0.00 75 1008.4
20260503191203 59 200 4.0 8.0 0.00 0.00 0.00 74 1008.3
20260503190624 59 204 3.0 8.0 0.00 0.00 0.00 74 1008.3
20260503190024 59 228 4.0 10.0 0.00 0.00 0.00 73 1008.3
20260503185403 59 229 4.0 10.0 0.00 0.00 0.00 73 1008.3
20260503184803 59 205 4.0 10.0 0.00 0.00 0.00 72 1008.3
20260503184203 60 187 2.0 8.0 0.00 0.00 0.00 72 1008.4
20260503183603 60 216 3.0 7.0 0.00 0.00 0.00 71 1008.3
20260503183003 60 206 3.0 10.0 0.00 0.00 0.00 73 1008.2
20260503182424 59 202 4.0 10.0 0.00 0.00 0.00 75 1008.3
20260503181803 59 210 3.0 10.0 0.00 0.00 0.00 75 1008.3
20260503181224 59 213 4.0 9.0 0.00 0.00 0.00 73 1008.3
20260503180603 60 221 4.0 12.0 0.00 0.00 0.00 72 1008.4
20260503180004 59 222 3.0 12.0 0.00 0.00 0.00 73 1008.4
20260503175403 60 228 2.0 10.0 0.00 0.00 0.00 72 1008.2
20260503174803 60 222 3.0 10.0 0.00 0.00 0.00 71 1008.2
20260503174203 59 170 2.0 9.0 0.00 0.00 0.00 76 1008.2
20260503173603 58 52 1.0 5.0 0.00 0.00 0.00 79 1008.0
20260503173003 58 335 0.0 4.0 0.00 0.00 0.00 79 1007.9
20260503172403 57 216 1.0 3.0 0.00 0.00 0.00 78 1007.9
20260503171803 57 207 1.0 7.0 0.00 0.00 0.00 77 1008.1
20260503171203 58 191 2.0 8.0 0.00 0.00 0.00 76 1008.2
20260503170603 58 204 3.0 7.0 0.00 0.00 0.00 78 1008.3
20260503150603 55 149 0.0 4.0 0.00 0.00 0.00 84 1006.9
20260503131203 56 97 1.0 6.0 0.00 0.00 0.00 77 1005.7
20260503130624 56 74 0.0 6.0 0.00 0.00 0.00 76 1005.6
20260503110603 59 103 3.0 8.0 0.00 0.00 0.00 68 1005.6
20260503081203 60 93 3.0 8.0 0.00 0.00 0.00 69 1007.3
20260503080603 60 93 3.0 8.0 0.00 0.00 0.00 69 1007.3
20260503072403 61 100 3.0 7.0 0.00 0.00 0.00 70 1007.7
20260503071824 61 100 2.0 7.0 0.00 0.00 0.00 70 1007.8
20260503071203 61 102 2.0 7.0 0.00 0.00 0.00 70 1007.7
20260503070624 61 101 3.0 9.0 0.00 0.00 0.00 70 1007.8